Location: Dumpton Point
(51.3500°N, 1.4433°E)
Time: 09:43:58
(UTC+00:00)

Cosmos 2084 - Pass Details

Date: 09 April 2020
Orbit: 571 x 612 km, 62.8° (Epoch: 06 June)

Event Time Altitude Azimuth Distance (km) Brightness Sun altitude
Rises 21:50:45 0° 314° (NW) 2,882 8.3 -24.8°
Reaches altitude 10° 21:53:04 10° 318° (NW) 1,971 7.2 -25.0°
Enters shadow 21:57:18 57° 27° (NNE) 718 3.9 -25.4°
